KUIPER-00605

导读

KUIPER-00605(NORAD编号69288)是亚马逊柯伊伯卫星互联网项目的低轨通信卫星,该项目旨在为北纬56°至南纬56°区域的全球用户提供高速低延迟的互联网接入服务。卫星属于柯伊伯星座组成部分,采用Ka频段通信,发射后先进入约450公里的初始轨道,后通过电推进系统提升至630公里的工作轨道运行。该卫星由华盛顿州雷德蒙德的柯伊伯任务控制中心管控,目前在轨正常执行通信组网任务,是亚马逊计划2026年7月前完成部署1618颗星座卫星进度中的在轨成员。

Basic Information
目录编号:
69288
目录名称:
KUIPER-00605
国际标识:
2026-118X
轨道中心:
EARTH
卫星名称:
KUIPER-00605
卫星全名:
KUIPER-00605
卫星状态:
在轨 (已飞行60 天)
发射日期:
2026-05-29 UTC
国别 :
美国 (US)
星等 :
--
Orbit Information
数据来源 国际轨道数据
星历时间: 2026-07-27T22:00:02+0800
10小时前
查看轨道信息
半长轴: 7001.706km
偏心率: 0.0002644
轨道倾角: 51.897°
近地点辐角 43.319°
升交点赤经 224.545°
平近点角 112.401°
近地点: 621.717km
远地点: 625.421km
周期: 97.177分钟
每日圈数: 14.818253
Detailed Information
使用方式:
暂无
2D Orbit Map
3D Orbit Map
Orbit Altitude Analysis Chart
Orbit Inclination Analysis Chart
Orbit Comprehensive Analysis Chart
View Comprehensive Chart